| time (UTC) | temp C | wind direction | speed KPH | gust KPH | rain 1hr cm | rain 24hr cm | rain mn cm | humidity % | barometer mb |
| 20260508170903 | 22 | 314 | 4.8 | 12.9 | 0.00 | 0.00 | 0.00 | 51 | 1016.4 |
| 20260508170003 | 23 | 317 | 3.2 | 4.8 | 0.00 | 0.00 | 0.00 | 49 | 1016.3 |
| 20260508165403 | 23 | 321 | 1.6 | 4.8 | 0.00 | 0.00 | 0.00 | 48 | 1016.4 |
| 20260508164503 | 23 | 313 | 3.2 | 4.8 | 0.00 | 0.00 | 0.00 | 46 | 1016.1 |
| 20260508163604 | 23 | 315 | 1.6 | 4.8 | 0.00 | 0.00 | 0.00 | 44 | 1016.1 |
| 20260508162703 | 23 | 319 | 0.0 | 3.2 | 0.00 | 0.00 | 0.00 | 43 | 1016.0 |
| 20260508161802 | 24 | 335 | 1.6 | 3.2 | 0.00 | 0.00 | 0.00 | 41 | 1016.0 |
| 20260508160923 | 24 | 350 | 1.6 | 4.8 | 0.00 | 0.00 | 0.00 | 40 | 1015.8 |
| 20260508160003 | 24 | 350 | 3.2 | 4.8 | 0.00 | 0.00 | 0.00 | 39 | 1015.7 |
| 20260508155403 | 25 | 352 | 3.2 | 11.3 | 0.00 | 0.00 | 0.00 | 39 | 1015.6 |
| 20260508154503 | 25 | 348 | 4.8 | 11.3 | 0.00 | 0.00 | 0.00 | 38 | 1015.5 |
| 20260508153624 | 25 | 334 | 4.8 | 12.9 | 0.00 | 0.00 | 0.00 | 37 | 1015.3 |
| 20260508152724 | 26 | 324 | 6.4 | 12.9 | 0.00 | 0.00 | 0.00 | 36 | 1015.4 |
| 20260508151802 | 26 | 330 | 4.8 | 16.1 | 0.00 | 0.00 | 0.00 | 37 | 1015.3 |
| 20260508150903 | 26 | 318 | 6.4 | 16.1 | 0.00 | 0.00 | 0.00 | 37 | 1015.3 |
| 20260508150003 | 26 | 332 | 4.8 | 12.9 | 0.00 | 0.00 | 0.00 | 36 | 1015.2 |
| 20260508145403 | 26 | 331 | 8.0 | 17.7 | 0.00 | 0.00 | 0.00 | 36 | 1015.1 |
| 20260508144503 | 26 | 313 | 11.3 | 17.7 | 0.00 | 0.00 | 0.00 | 38 | 1015.3 |
| 20260508143603 | 26 | 309 | 9.7 | 20.9 | 0.00 | 0.00 | 0.00 | 39 | 1015.2 |
| 20260508142703 | 26 | 310 | 11.3 | 20.9 | 0.00 | 0.00 | 0.00 | 39 | 1015.3 |
| 20260508141803 | 26 | 297 | 12.9 | 17.7 | 0.00 | 0.00 | 0.00 | 39 | 1015.2 |
| 20260508140924 | 26 | 302 | 9.7 | 17.7 | 0.00 | 0.00 | 0.00 | 40 | 1015.1 |
| 20260508140003 | 26 | 300 | 11.3 | 22.5 | 0.00 | 0.00 | 0.00 | 43 | 1015.3 |
| 20260508135424 | 25 | 302 | 11.3 | 24.1 | 0.00 | 0.00 | 0.00 | 42 | 1015.4 |
| 20260508134502 | 26 | 323 | 8.0 | 17.7 | 0.00 | 0.00 | 0.00 | 42 | 1015.1 |
| 20260508133603 | 26 | 342 | 8.0 | 14.5 | 0.00 | 0.00 | 0.00 | 38 | 1015.3 |
| 20260508132703 | 25 | 316 | 11.3 | 20.9 | 0.00 | 0.00 | 0.00 | 36 | 1015.5 |
| 20260508131803 | 26 | 293 | 9.7 | 17.7 | 0.00 | 0.00 | 0.00 | 41 | 1015.5 |
| 20260508130903 | 26 | 307 | 12.9 | 24.1 | 0.00 | 0.00 | 0.00 | 37 | 1015.5 |
| 20260508130002 | 26 | 302 | 12.9 | 24.1 | 0.00 | 0.00 | 0.00 | 38 | 1015.6 |
| 20260508125402 | 25 | 308 | 11.3 | 22.5 | 0.00 | 0.00 | 0.00 | 41 | 1015.6 |
| 20260508124503 | 25 | 324 | 11.3 | 24.1 | 0.00 | 0.00 | 0.00 | 36 | 1015.7 |
| 20260508123603 | 26 | 318 | 11.3 | 22.5 | 0.00 | 0.00 | 0.00 | 37 | 1015.8 |
| 20260508122724 | 25 | 318 | 11.3 | 20.9 | 0.00 | 0.00 | 0.00 | 41 | 1015.8 |
| 20260508121803 | 25 | 320 | 11.3 | 24.1 | 0.00 | 0.00 | 0.00 | 40 | 1016.0 |
| 20260508120902 | 25 | 297 | 11.3 | 22.5 | 0.00 | 0.00 | 0.00 | 43 | 1015.9 |
| 20260508120004 | 25 | 293 | 11.3 | 24.1 | 0.00 | 0.00 | 0.00 | 43 | 1016.1 |
| 20260508115424 | 25 | 312 | 9.7 | 24.1 | 0.00 | 0.00 | 0.00 | 40 | 1016.2 |
| 20260508114503 | 25 | 300 | 9.7 | 20.9 | 0.00 | 0.00 | 0.00 | 43 | 1016.4 |
| 20260508113624 | 25 | 301 | 9.7 | 20.9 | 0.00 | 0.00 | 0.00 | 44 | 1016.3 |
| 20260508112724 | 25 | 311 | 6.4 | 24.1 | 0.00 | 0.00 | 0.00 | 43 | 1016.3 |
| 20260508111803 | 25 | 299 | 11.3 | 22.5 | 0.00 | 0.00 | 0.00 | 44 | 1016.5 |
| 20260508110903 | 25 | 285 | 9.7 | 22.5 | 0.00 | 0.00 | 0.00 | 43 | 1016.7 |
| 20260508110003 | 25 | 312 | 9.7 | 24.1 | 0.00 | 0.00 | 0.00 | 42 | 1016.7 |
| 20260508105404 | 25 | 308 | 12.9 | 27.4 | 0.00 | 0.00 | 0.00 | 44 | 1016.8 |
| 20260508104503 | 25 | 298 | 11.3 | 20.9 | 0.00 | 0.00 | 0.00 | 43 | 1016.8 |
| 20260508103603 | 25 | 306 | 11.3 | 20.9 | 0.00 | 0.00 | 0.00 | 42 | 1016.9 |
| 20260508102703 | 25 | 306 | 9.7 | 17.7 | 0.00 | 0.00 | 0.00 | 41 | 1016.9 |
| 20260508101824 | 24 | 310 | 11.3 | 24.1 | 0.00 | 0.00 | 0.00 | 43 | 1017.1 |
| 20260508100904 | 24 | 306 | 14.5 | 25.7 | 0.00 | 0.00 | 0.00 | 40 | 1017.0 |
| 20260508100025 | 24 | 303 | 12.9 | 25.7 | 0.00 | 0.00 | 0.00 | 42 | 1017.4 |
| 20260508095403 | 24 | 298 | 9.7 | 17.7 | 0.00 | 0.00 | 0.00 | 41 | 1017.1 |
| 20260508094503 | 23 | 292 | 12.9 | 24.1 | 0.00 | 0.00 | 0.00 | 42 | 1017.4 |
| 20260508093603 | 24 | 314 | 9.7 | 24.1 | 0.00 | 0.00 | 0.00 | 42 | 1017.3 |
| 20260508092703 | 24 | 283 | 12.9 | 22.5 | 0.00 | 0.00 | 0.00 | 41 | 1017.6 |
| 20260508091803 | 23 | 304 | 11.3 | 22.5 | 0.00 | 0.00 | 0.00 | 43 | 1017.6 |
| 20260508090903 | 23 | 308 | 12.9 | 22.5 | 0.00 | 0.00 | 0.00 | 42 | 1017.6 |
| 20260508090003 | 23 | 304 | 11.3 | 20.9 | 0.00 | 0.00 | 0.00 | 44 | 1017.7 |
| 20260508085424 | 23 | 308 | 6.4 | 20.9 | 0.00 | 0.00 | 0.00 | 45 | 1017.6 |
| 20260508084503 | 22 | 298 | 4.8 | 16.1 | 0.00 | 0.00 | 0.00 | 51 | 1018.0 |
| 20260508083603 | 23 | 320 | 6.4 | 16.1 | 0.00 | 0.00 | 0.00 | 51 | 1018.3 |
| 20260508082703 | 23 | 343 | 6.4 | 14.5 | 0.00 | 0.00 | 0.00 | 53 | 1018.2 |
| 20260508081803 | 23 | 341 | 4.8 | 12.9 | 0.00 | 0.00 | 0.00 | 52 | 1018.3 |
| 20260508080925 | 22 | 335 | 3.2 | 12.9 | 0.00 | 0.00 | 0.00 | 54 | 1018.3 |
| 20260508080004 | 22 | 95 | 3.2 | 9.7 | 0.00 | 0.00 | 0.00 | 54 | 1018.3 |
| 20260508075403 | 22 | 318 | 4.8 | 12.9 | 0.00 | 0.00 | 0.00 | 56 | 1018.4 |
| 20260508074503 | 22 | 12 | 4.8 | 12.9 | 0.00 | 0.00 | 0.00 | 57 | 1018.5 |
| 20260508073625 | 21 | 43 | 1.6 | 4.8 | 0.00 | 0.00 | 0.00 | 56 | 1018.7 |
| 20260508072704 | 21 | 331 | 1.6 | 6.4 | 0.00 | 0.00 | 0.00 | 60 | 1018.8 |
| 20260508071824 | 21 | 69 | 1.6 | 6.4 | 0.00 | 0.00 | 0.00 | 60 | 1019.0 |
| 20260508070924 | 21 | 70 | 3.2 | 6.4 | 0.00 | 0.00 | 0.00 | 61 | 1019.1 |
| 20260508070003 | 20 | 18 | 1.6 | 6.4 | 0.00 | 0.00 | 0.00 | 62 | 1019.1 |
| 20260508065403 | 20 | 22 | 1.6 | 6.4 | 0.00 | 0.00 | 0.00 | 62 | 1019.1 |
| 20260508064503 | 19 | 347 | 3.2 | 9.7 | 0.00 | 0.00 | 0.00 | 64 | 1019.3 |
| 20260508063603 | 19 | 58 | 4.8 | 9.7 | 0.00 | 0.00 | 0.00 | 66 | 1019.4 |
| 20260508062703 | 19 | 47 | 3.2 | 9.7 | 0.00 | 0.00 | 0.00 | 67 | 1019.1 |
| 20260508061803 | 18 | 42 | 3.2 | 9.7 | 0.00 | 0.00 | 0.00 | 67 | 1019.4 |
| 20260508060905 | 17 | 20 | 3.2 | 9.7 | 0.00 | 0.00 | 0.00 | 69 | 1019.7 |
| 20260508060003 | 18 | 87 | 4.8 | 11.3 | 0.00 | 0.00 | 0.00 | 69 | 1019.6 |
| 20260508055403 | 18 | 58 | 3.2 | 11.3 | 0.00 | 0.00 | 0.00 | 70 | 1019.5 |
| 20260508054504 | 17 | 311 | 1.6 | 6.4 | 0.00 | 0.00 | 0.00 | 72 | 1019.6 |
| 20260508053603 | 17 | 308 | 3.2 | 6.4 | 0.00 | 0.00 | 0.00 | 74 | 1019.4 |
| 20260508052724 | 17 | 311 | 1.6 | 6.4 | 0.00 | 0.00 | 0.00 | 74 | 1019.5 |
| 20260508051803 | 16 | 323 | 3.2 | 9.7 | 0.00 | 0.00 | 0.00 | 76 | 1019.7 |
| 20260508050903 | 16 | 302 | 3.2 | 11.3 | 0.00 | 0.00 | 0.00 | 77 | 1019.4 |
| 20260508050004 | 15 | 304 | 4.8 | 9.7 | 0.00 | 0.00 | 0.00 | 78 | 1019.6 |
| 20260508045405 | 15 | 306 | 4.8 | 9.7 | 0.00 | 0.00 | 0.00 | 78 | 1019.5 |
| 20260508044505 | 15 | 303 | 4.8 | 6.4 | 0.00 | 0.00 | 0.00 | 79 | 1019.5 |
| 20260508043625 | 14 | 315 | 4.8 | 9.7 | 0.00 | 0.00 | 0.00 | 80 | 1019.6 |
| 20260508042724 | 14 | 311 | 4.8 | 11.3 | 0.00 | 0.00 | 0.00 | 81 | 1019.5 |
| 20260508041824 | 14 | 309 | 6.4 | 12.9 | 0.00 | 0.00 | 0.00 | 81 | 1019.5 |
| 20260508040904 | 14 | 308 | 6.4 | 11.3 | 0.00 | 0.00 | 0.00 | 81 | 1019.4 |
| 20260508040003 | 14 | 307 | 4.8 | 9.7 | 0.00 | 0.00 | 0.00 | 81 | 1019.5 |
| 20260508035403 | 13 | 308 | 4.8 | 9.7 | 0.00 | 0.00 | 0.00 | 81 | 1019.2 |
| 20260508034503 | 13 | 314 | 6.4 | 11.3 | 0.00 | 0.00 | 0.00 | 81 | 1019.5 |
| 20260508033604 | 13 | 310 | 6.4 | 11.3 | 0.00 | 0.00 | 0.00 | 82 | 1019.4 |
| 20260508032724 | 13 | 312 | 4.8 | 9.7 | 0.00 | 0.00 | 0.00 | 82 | 1019.3 |
| 20260508031803 | 13 | 310 | 6.4 | 9.7 | 0.00 | 0.00 | 0.00 | 82 | 1019.2 |
| 20260508030924 | 12 | 312 | 8.0 | 11.3 | 0.00 | 0.00 | 0.00 | 82 | 1019.1 |
| 20260508030004 | 12 | 312 | 6.4 | 11.3 | 0.00 | 0.00 | 0.00 | 82 | 1019.1 |
| 20260508025424 | 12 | 312 | 6.4 | 11.3 | 0.00 | 0.00 | 0.00 | 82 | 1018.8 |
| 20260508024503 | 12 | 302 | 6.4 | 9.7 | 0.00 | 0.00 | 0.00 | 82 | 1018.8 |
| 20260508023603 | 13 | 300 | 4.8 | 9.7 | 0.00 | 0.00 | 0.00 | 82 | 1018.9 |
| 20260508022706 | 13 | 306 | 4.8 | 11.3 | 0.00 | 0.00 | 0.00 | 81 | 1018.9 |
| 20260508021803 | 13 | 313 | 4.8 | 6.4 | 0.00 | 0.00 | 0.00 | 81 | 1018.8 |
| 20260508020903 | 13 | 297 | 1.6 | 4.8 | 0.00 | 0.00 | 0.00 | 82 | 1018.7 |
| 20260508020003 | 13 | 311 | 0.0 | 3.2 | 0.00 | 0.00 | 0.00 | 83 | 1018.7 |
| 20260508015404 | 13 | 328 | 0.0 | 3.2 | 0.00 | 0.00 | 0.00 | 82 | 1018.5 |
| 20260508014504 | 13 | 338 | 0.0 | 3.2 | 0.00 | 0.00 | 0.00 | 82 | 1018.2 |
| 20260508013603 | 13 | 315 | 1.6 | 6.4 | 0.00 | 0.00 | 0.00 | 82 | 1018.2 |
| 20260508012704 | 13 | 312 | 4.8 | 6.4 | 0.00 | 0.00 | 0.00 | 82 | 1018.2 |
| 20260508011824 | 13 | 313 | 4.8 | 6.4 | 0.00 | 0.00 | 0.00 | 81 | 1018.1 |
| 20260508010903 | 13 | 310 | 3.2 | 6.4 | 0.00 | 0.00 | 0.00 | 80 | 1018.1 |
| 20260508010004 | 14 | 315 | 1.6 | 4.8 | 0.00 | 0.00 | 0.00 | 80 | 1018.2 |
| 20260508005404 | 14 | 319 | 1.6 | 9.7 | 0.00 | 0.00 | 0.00 | 80 | 1018.1 |
| 20260508004504 | 14 | 312 | 4.8 | 6.4 | 0.00 | 0.00 | 0.00 | 79 | 1017.9 |
| 20260508003604 | 14 | 318 | 3.2 | 6.4 | 0.00 | 0.00 | 0.00 | 79 | 1018.0 |
| 20260508002703 | 14 | 316 | 3.2 | 6.4 | 0.00 | 0.00 | 0.00 | 79 | 1017.8 |
| 20260508001803 | 14 | 311 | 6.4 | 9.7 | 0.00 | 0.00 | 0.00 | 79 | 1017.6 |
| 20260508000924 | 14 | 311 | 4.8 | 6.4 | 0.00 | 0.00 | 0.00 | 79 | 1017.9 |
| 20260508000024 | 15 | 320 | 3.2 | 9.7 | 0.00 | 0.00 | 0.00 | 78 | 1017.7 |
| 20260507235404 | 15 | 333 | 4.8 | 11.3 | 0.00 | 0.00 | 0.00 | 78 | 1017.7 |
| 20260507234502 | 15 | 334 | 1.6 | 11.3 | 0.00 | 0.00 | 0.00 | 78 | 1017.6 |
| 20260507233603 | 15 | 338 | 0.0 | 1.6 | 0.00 | 0.00 | 0.00 | 79 | 1018.0 |
| 20260507232702 | 15 | 327 | 1.6 | 4.8 | 0.00 | 0.00 | 0.00 | 78 | 1017.5 |
| 20260507231803 | 15 | 312 | 1.6 | 4.8 | 0.00 | 0.00 | 0.00 | 77 | 1017.7 |
| 20260507230902 | 15 | 0 | 0.0 | 0.0 | 0.00 | 0.00 | 0.00 | 78 | 1017.8 |
| 20260507230002 | 15 | 353 | 0.0 | 1.6 | 0.00 | 0.00 | 0.00 | 78 | 1017.6 |
| 20260507225402 | 15 | 351 | 1.6 | 4.8 | 0.00 | 0.00 | 0.00 | 77 | 1017.6 |
| 20260507224503 | 15 | 332 | 3.2 | 6.4 | 0.00 | 0.00 | 0.00 | 77 | 1017.7 |
| 20260507223602 | 15 | 310 | 4.8 | 6.4 | 0.00 | 0.00 | 0.00 | 76 | 1017.7 |
| 20260507222724 | 15 | 330 | 1.6 | 6.4 | 0.00 | 0.00 | 0.00 | 76 | 1017.7 |
| 20260507221802 | 15 | 318 | 3.2 | 9.7 | 0.00 | 0.00 | 0.00 | 75 | 1017.8 |
| 20260507220902 | 15 | 310 | 6.4 | 9.7 | 0.00 | 0.00 | 0.00 | 74 | 1017.7 |
| 20260507220003 | 16 | 310 | 4.8 | 9.7 | 0.00 | 0.00 | 0.00 | 75 | 1017.9 |
| 20260507215424 | 16 | 311 | 4.8 | 6.4 | 0.00 | 0.00 | 0.00 | 75 | 1018.0 |
| 20260507214523 | 16 | 314 | 4.8 | 11.3 | 0.00 | 0.00 | 0.00 | 75 | 1018.0 |
| 20260507213624 | 16 | 307 | 4.8 | 11.3 | 0.00 | 0.00 | 0.00 | 75 | 1018.0 |
| 20260507212702 | 16 | 310 | 3.2 | 9.7 | 0.00 | 0.00 | 0.00 | 75 | 1018.1 |
| 20260507211823 | 16 | 312 | 3.2 | 6.4 | 0.00 | 0.00 | 0.00 | 74 | 1018.0 |
| 20260507210902 | 16 | 313 | 4.8 | 11.3 | 0.00 | 0.00 | 0.00 | 73 | 1017.9 |
| 20260507210002 | 16 | 313 | 8.0 | 12.9 | 0.00 | 0.00 | 0.00 | 73 | 1018.1 |
| 20260507205402 | 16 | 312 | 6.4 | 12.9 | 0.00 | 0.00 | 0.00 | 73 | 1018.1 |
| 20260507204523 | 16 | 313 | 4.8 | 9.7 | 0.00 | 0.00 | 0.00 | 73 | 1018.1 |
| 20260507203602 | 16 | 311 | 6.4 | 9.7 | 0.00 | 0.00 | 0.00 | 74 | 1018.0 |
| 20260507202703 | 16 | 308 | 6.4 | 9.7 | 0.00 | 0.00 | 0.00 | 73 | 1018.1 |
| 20260507201803 | 16 | 307 | 6.4 | 11.3 | 0.00 | 0.00 | 0.00 | 72 | 1018.0 |
| 20260507200902 | 17 | 312 | 6.4 | 9.7 | 0.00 | 0.00 | 0.00 | 72 | 1018.0 |
| 20260507200003 | 17 | 315 | 6.4 | 11.3 | 0.00 | 0.00 | 0.00 | 72 | 1017.9 |
| 20260507195402 | 17 | 311 | 4.8 | 9.7 | 0.00 | 0.00 | 0.00 | 71 | 1017.8 |
| 20260507194502 | 17 | 309 | 6.4 | 12.9 | 0.00 | 0.00 | 0.00 | 71 | 1017.8 |
| 20260507193624 | 17 | 311 | 6.4 | 12.9 | 0.00 | 0.00 | 0.00 | 69 | 1018.0 |
| 20260507192703 | 17 | 309 | 9.7 | 16.1 | 0.00 | 0.00 | 0.00 | 68 | 1017.8 |
| 20260507191802 | 18 | 309 | 8.0 | 16.1 | 0.00 | 0.00 | 0.00 | 67 | 1018.0 |
| 20260507190902 | 18 | 313 | 4.8 | 11.3 | 0.00 | 0.00 | 0.00 | 66 | 1017.8 |
| 20260507190003 | 18 | 318 | 1.6 | 6.4 | 0.00 | 0.00 | 0.00 | 66 | 1017.7 |
| 20260507185402 | 18 | 317 | 4.8 | 9.7 | 0.00 | 0.00 | 0.00 | 66 | 1017.6 |
| 20260507184502 | 18 | 314 | 4.8 | 9.7 | 0.00 | 0.00 | 0.00 | 65 | 1017.8 |
| 20260507183602 | 18 | 314 | 4.8 | 9.7 | 0.00 | 0.00 | 0.00 | 65 | 1017.9 |
| 20260507182702 | 18 | 312 | 6.4 | 9.7 | 0.00 | 0.00 | 0.00 | 64 | 1017.8 |
| 20260507181803 | 19 | 312 | 4.8 | 9.7 | 0.00 | 0.00 | 0.00 | 64 | 1017.4 |
| 20260507180902 | 19 | 316 | 3.2 | 4.8 | 0.00 | 0.00 | 0.00 | 63 | 1017.4 |
| 20260507180003 | 19 | 320 | 4.8 | 6.4 | 0.00 | 0.00 | 0.00 | 63 | 1017.4 |
| 20260507175402 | 20 | 318 | 3.2 | 6.4 | 0.00 | 0.00 | 0.00 | 63 | 1017.3 |
| 20260507174502 | 20 | 319 | 1.6 | 4.8 | 0.00 | 0.00 | 0.00 | 62 | 1017.0 |
| 20260507173602 | 20 | 322 | 1.6 | 4.8 | 0.00 | 0.00 | 0.00 | 60 | 1017.0 |
| 20260507172702 | 20 | 323 | 1.6 | 4.8 | 0.00 | 0.00 | 0.00 | 59 | 1016.7 |
| 20260507171802 | 21 | 323 | 1.6 | 3.2 | 0.00 | 0.00 | 0.00 | 57 | 1016.4 |